Flag for USA

Past Weather in Coachella, California, USA — Yesterday and Last 2 Weeks

Now
86 °F

Sunny.


Feels Like: 83 °F
Forecast: 103 / 75 °F
Wind: No wind

Location: Palm Springs Regional Airport
Current Time: Sep 25, 2020 at 10:11:13 am
Latest Report: Sep 25, 2020 at 8:53 am
Visibility: 10 mi
Pressure29.84 "Hg
Humidity: 24%
Dew Point: 45 °F
Location of CoachellaLocation

Past Weather in Coachella — Graph

°F

Coachella Temperature Yesterday

Maximum temperature yesterday: 108 °F (at 3:53 pm)
Minimum temperature yesterday: 76 °F (at 5:53 am)
Average temperature yesterday: 93 °F

High & Low Weather Summary for the Past Weeks

 TemperatureHumidityPressure
High113 °F (Sep 17, 2:53 pm)47% (Sep 20, 6:53 am)30.03 "Hg (Sep 20, 6:53 am)
Low72 °F (Sep 12, 5:53 am)5% (Sep 17, 2:53 pm)29.68 "Hg (Sep 19, 4:53 pm)
Average92 °F19%29.85 "Hg
* Reported Sep 10 8:53 am — Sep 25 8:53 am, Coachella. Weather by CustomWeather, © 2020

Note: Actual official high and low records may vary slightly from our data, if they occured in-between our weather recording intervals... More about our weather records

Coachella Weather History for the Previous 24 Hours

Scroll right to see more
 ConditionsComfort  
Time TempWeatherWind HumidityBarometerVisibility
8:53 am
Fri, Sep 25
86 °FSunny.No wind24%29.84 "Hg10 mi
7:53 am79 °FSunny.3 mph36%29.82 "Hg10 mi
6:53 am76 °FSunny.3 mph36%29.81 "Hg10 mi
5:53 am75 °FClear.3 mph42%29.79 "Hg10 mi
4:53 am76 °FClear.3 mph39%29.78 "Hg10 mi
3:53 am78 °FClear.No wind37%29.78 "Hg10 mi
2:53 am76 °FClear.No wind39%29.77 "Hg10 mi
1:53 am84 °FClear.No wind26%29.77 "Hg10 mi
12:53 am84 °FClear.No wind26%29.78 "Hg10 mi
11:53 pm
Thu, Sep 24
85 °FClear.5 mph25%29.77 "Hg10 mi
10:53 pm91 °FClear.8 mph17%29.76 "Hg10 mi
9:53 pm93 °FClear.9 mph16%29.76 "Hg10 mi
8:53 pm95 °FClear.13 mph19%29.75 "Hg10 mi
7:53 pm98 °FClear.16 mph17%29.73 "Hg10 mi
6:53 pm100 °FClear.15 mph15%29.72 "Hg10 mi
5:53 pm103 °FSunny.13 mph13%29.72 "Hg10 mi
4:53 pm107 °FSunny.10 mph10%29.72 "Hg10 mi
3:53 pm108 °FSunny.3 mph10%29.75 "Hg10 mi
2:53 pm107 °FSunny.8 mph11%29.76 "Hg10 mi
1:53 pm106 °FSunny.No wind11%29.78 "Hg10 mi
12:53 pm105 °FSunny.3 mph11%29.81 "Hg10 mi
11:53 am104 °FSunny.No wind12%29.83 "Hg10 mi
10:53 am100 °FSunny.3 mph13%29.85 "Hg10 mi
Weather by CustomWeather, © 2020

See weather overview